Погода в Лахти

Финляндия     60°58′40″N   25°39′35″E
темп.,
°C
ветер,
м/с
пор.,
м/с
влажн.,
%
обл.,
%
осадки,
мм/ч
давл.,
гПа
погр.,
м
7 марта, вс
вс723:00−5з4137633 0.0 991830
02:00−6зсз5126445 0.1 9911218
05:00−8зсз5127451 0.0 989918
08:00−8зсз5108154 0.0 988903
11:00−5сз4890100 0.8 989772
14:00−5ссз61087100 2.1 992957
17:00−5с51089100 0.6 996946
20:00−7с51190100 0.9 1001859
8 марта, пн
пн823:00−9с51187100 0.1 1005861
02:00−10с51188100 0.1 1009659
05:00−12с41190100 0.0 1011436
08:00−13с4108787 0.0 1014366
11:00−10с3777100 0.0 1015451
14:00−7ссз367186 0.0 1016701
17:00−8ссз37790 0.0 1017508
20:00−12св11910 0.0 101821
9 марта, вт
вт923:00−11ю119259 0.0 101922
02:00−10ю249180 0.0 1018145
05:00−10ю4893100 0.3 1016337
08:00−9ююв41094100 2.5 1015492
11:00−7вюв61094100 4.3 1014547
14:00−9в61290100 6.3 1015705
17:00−10в51092100 0.4 1016645
20:00−13всв4993100 0.6 1020416
10 марта, ср
ср1023:00−17всв389359 0.0 1022240
02:00−20всв279030 0.0 1024146
05:00−21всв238822 0.0 102440
08:00−19в248519 0.0 1025123
11:00−12юв36790 0.0 1025352
14:00−9юв36760 0.0 1023622
17:00−10юв37830 0.0 1021421
20:00−15юв310860 0.0 1021209
11 марта, чт
чт1123:00−15юв310910 0.0 1019221
02:00−14юв310945 0.0 1017243
05:00−12юв5129467 0.1 1014536
08:00−12юв5129283 0.2 1011578
11:00−10юв61290100 0.1 1008578
14:00−8юв61289100 0.2 1005565
17:00−8вюв61391100 0.1 1001645
20:00−8юв61492100 0.4 997739